星链-6261 (STARLINK-6261 )

导读

STARLINK-6261是美国SpaceX公司星链互联网星座中的一颗低轨卫星,于2023年5月4日由猎鹰9号火箭发射升空,属于星链第二代组网卫星。 它运行在近地轨道,配备霍尔推进器与太阳能电池阵列,可自主规避空间碎片,为全球提供高速低延迟卫星宽带服务,目前已在轨服役近3年,属于现役工作卫星,是星链全球互联网组网的组成部分,推动了星链覆盖范围的扩展。

Basic Information
目录编号:
56417
目录名称:
STARLINK-6261
国际标识:
2023-061AV
轨道中心:
EARTH
卫星名称:
星链-6261
卫星全名:
星链-6261 (STARLINK-6261 )
卫星状态:
在轨 (已飞行1219 天)
发射日期:
2023-05-04 UTC
国别 :
美国 (US)
星等 :
--
Orbit Information
数据来源 国际轨道数据
星历时间: 2026-09-03T15:54:44+0800
1天前
查看轨道信息
半长轴: 6861.23km
偏心率: 0.0001782
轨道倾角: 43.001°
近地点辐角 275.262°
升交点赤经 263.706°
平近点角 84.802°
近地点: 481.87km
远地点: 484.316km
周期: 94.268分钟
每日圈数: 15.275656
Detailed Information
固有亮度:
5
最大亮度:
2.5
卫星平台:
Starlink v1.5
覆盖范围:
全球
运营商:
太空探索技术公司
运营商所在国:
美国
制造商(研发单位):
太空探索技术公司
制造商所在国:
美国
使用方式:
暂无
Satellite Introduction
星链(Starlink)计划是由太空探索技术公司(SpaceX)提出的一个巨型低轨卫星互联网星座项目,计划在2019年至2024年间在太空搭建由约1.2万颗卫星组成的“星链”网络,其中1584颗将部署在地球上空550千米处的近地轨道,并从2020年开始工作。该卫星仍在工作。
2D Orbit Map
3D Orbit Map
Orbit Altitude Analysis Chart
Orbit Inclination Analysis Chart
Orbit Comprehensive Analysis Chart
View Comprehensive Chart
Conjunction Data List
Event ID Objects TCA Miss Dist (km) Collision Risk Probability Collision Risk Index (CRI) Action
CDM_260905-202705-641706-800421
2026-09-05T
20:27:01+0000
0.763 km
远距离
4.942437E-5 中风险 0.69
CDM_260905-053205-641706-800421
2026-09-05T
05:32:34+0000
0.992 km
远距离
2.07135E-5 中风险 0.61
CDM_260905-035805-641706-800421
2026-09-05T
03:58:25+0000
1.210 km
极远距离
1.039752E-5 中风险 0.55
CDM_260903-074402-565505-641721
SL-3 DEB (25655)
2026-09-03T
07:44:32+0000
1.395 km
极远距离
5.557674E-6 低风险 0.5
CDM_260905-185205-641706-800421
2026-09-05T
18:52:52+0000
1.985 km
极远距离
2.236139E-6 低风险 0.42
CDM_260827-190405-641706-703623
2026-08-27T
19:04:30+0000
2.064 km
极远距离
2.073812E-6 低风险 0.41
CDM_260904-203305-641706-652521
2026-09-04T
20:33:25+0000
2.737 km
极远距离
1.018151E-6 低风险 0.35